Regional Weather Roundup
Issued by NWS

Home | Current Version | Previous Version | Graphics & Text | Print | Product List | Glossary On
Versions: 1 2 3 4 5 6 7 8 9 10 11 12 13 14 15 16 17 18 19 20 21 22 23 24 25 26 27 28 29 30 31 32 33 34 35 36 37 38 39 40 41 42 43 44 45 46 47 48 49 50
715
ASUS45 KPSR 092010
RWRAZ

ARIZONA HOURLY REGIONAL WEATHER ROUNDUP
NATIONAL WEATHER SERVICE PHOENIX AZ
100 PM MST TUE FEB 09 2016

NOTE: FAIR INDICATES FEW OR NO CLOUDS BELOW 12,000 FEET WITH NO
SIGNIFICANT WEATHER AND/OR OBSTRUCTIONS TO VISIBILITY.

AZZ001>003-036-092100-
NORTHWEST ARIZONA

CITY           SKY/WX    TMP DP  RH WIND       PRES   REMARKS
BULLHEAD CITY  SUNNY     72  25  17 N31G37    30.24F
KINGMAN        SUNNY     66  24  20 N15       30.33F
$$

AZZ004>008-015-016-018-092100-
NORTH CENTRAL ARIZONA

CITY           SKY/WX    TMP DP  RH WIND       PRES   REMARKS
GRAND CANYON   SUNNY     55  13  18 NE16      30.46F
WILLIAMS       SUNNY     61  19  20 NW6       30.46F
PRESCOTT       SUNNY     65  15  14 VRB6      30.35F
FLAGSTAFF      SUNNY     52  17  25 E10       30.43F
PAYSON         SUNNY     64  21  19 SW9       30.34F
PAGE           SUNNY     47  28  47 E6        30.46F
$$

AZZ009>014-017-092100-
NORTHEAST ARIZONA

CITY           SKY/WX    TMP DP  RH WIND       PRES   REMARKS
WINSLOW        SUNNY     55  22  27 VRB3      30.41F
SAINT JOHNS    SUNNY     54  22  28 VRB6      30.39F
WINDOW ROCK    SUNNY     53   0  11 SW3       30.41F
SHOW LOW       SUNNY     48  19  32 NE7       30.43F
$$

AZZ023-092100-
GREATER PHOENIX AREA

CITY           SKY/WX    TMP DP  RH WIND       PRES   REMARKS
PHOENIX        SUNNY     82  19   9 NE13G21   30.14F
BUCKEYE        SUNNY     75  32  20 CALM      30.18F
GLENDALE       SUNNY     81  23  12 NE6       30.18F
LUKE AFB       SUNNY     80  23  12 E7        30.15F
DEER VALLEY    SUNNY     79  20  11 SE8       30.16F
SCOTTSDALE     SUNNY     78  16   9 SE3       30.19F
MESA-FALCON    SUNNY    N/A N/A N/A NE12      30.16
MESA-GATEWAY   SUNNY     77  27  15 CALM      30.17F
$$

AZZ027-028-092100-
SOUTHWEST MARICOPA COUNTY AND PINAL COUNTY

CITY           SKY/WX    TMP DP  RH WIND       PRES   REMARKS
CASA GRANDE    SUNNY     79  27  14 E16       30.16F
GILA BEND      SUNNY     80  23  12 NE13      30.13F
$$

AZZ503-504-507>509-092100-
SOUTHEAST ARIZONA

CITY           SKY/WX    TMP DP  RH WIND       PRES   REMARKS
TUCSON         SUNNY     79  15   9 NE12      30.20F
DAVIS-MONTHAN  SUNNY     78  17  10 NE2       30.18F
RYAN FIELD     SUNNY     81  23  12 NE8       30.19F
NOGALES        SUNNY     76  14   9 S7        30.21F
SIERRA VISTA   SUNNY     68  13  11 VRB6      30.29F
DOUGLAS        SUNNY     70  15  12 E6        30.27F
SAFFORD        SUNNY     67  22  18 S9        30.28F
$$

AZZ020-021-025-026-031-092100-
SOUTHWEST ARIZONA

CITY           SKY/WX    TMP DP  RH WIND       PRES   REMARKS
YUMA           SUNNY     81  26  13 N16       30.15F
$$

CAZ031-033-041-043-047-048-061-092100-
SOUTHERN CALIFORNIA

CITY           SKY/WX    TMP DP  RH WIND       PRES   REMARKS
DOWNTOWN L.A.  SUNNY     87  29  12 W3        30.12F HAZE
L.A. AIRPORT   MOSUNNY   86  23  10 NE3       30.12F
SAN DIEGO      SUNNY     82  22  11 W6        30.12F
BURBANK        SUNNY     84  23  10 CALM      30.14F
ONTARIO        SUNNY     82  20  10 VRB3      30.15F
RIVERSIDE      SUNNY     85  22  10 NE10G18   30.15F
PALM SPRINGS   SUNNY     85  24  11 CALM      30.19F
EL CENTRO NAS  SUNNY     83  21  10 N6        30.18F
IMPERIAL       SUNNY     83  24  11 NW5       30.16F
BLYTHE         SUNNY     79  26  14 N14       30.20F
NEEDLES        SUNNY     76  25  15 NE26      30.24F
$$

NVZ020-UTZ003-092100-
SOUTHERN NEVADA-UTAH

CITY           SKY/WX    TMP DP  RH WIND       PRES   REMARKS
LAS VEGAS      SUNNY     65  25  22 CALM      30.32F
SALT LAKE CITY SUNNY     38  29  70 NW7       30.56F HAZE    WCI  33
$$

NMZ009-TXZ055-092100-
NEW MEXICO-WEST TEXAS

CITY           SKY/WX    TMP DP  RH WIND       PRES   REMARKS
ALBUQUERQUE    SUNNY     55  21  26 VRB7      30.37F
EL PASO        SUNNY     60  16  18 N5        30.33F
$$


........................KEY........................
SKY/WX - SKY CONDITION/WEATHER
TMP    - TEMPERATURE IN FAHRENHEIT
DP     - DEW POINT IN FAHRENHEIT
RH     - RELATIVE HUMIDITY IN PERCENT
WIND   - DIRECTION AND SPEED IN MILES PER HOUR (MPH)
VRB    - VARIABLE WIND DIRECTION
PRES   - MEAN SEA LEVEL PRESSURE IN INCHES OF MERCURY
         F - FALLING PRESSURE   R - RISING PRESSURE
         S - STEADY PRESSURE
VSB    - VISIBILITY IN MILES
HX     - HEAT INDEX IN FAHRENHEIT
WCI    - WIND CHILL INDEX IN FAHRENHEIT
TC     - TEMPERATURE IN CELSIUS WHICH IS ALSO KNOWN AS
         TEMPERATURE IN CENTIGRADE
AFB    - AIR FORCE BASE
         LUKE AFB IS LUKE AIR FORCE BASE
         DAVIS-MONTHAN IS DAVIS-MONTHAN AIR FORCE BASE
NAS    - NAVAL AIR STATION
         EL CENTRO NAS IS EL CENTRO NAVAL AIR STATION
N/A    - NOT AVAILABLE





USA.gov is the U.S. government's official web portal to all federal, state and local government web resources and services.